FW7829 Weather Reports


time (UTC)temp
C
wind
direction
speed
KPH
gust
KPH
rain 1hr
cm
rain 24hr
cm
rain mn
cm
humidity
%
barometer
mb
20260510131418 17 157 0.0 0.0 0.00 0.46 0.46 99 1012.9
20260510130914 17 177 0.0 0.0 0.00 0.46 0.46 99 1012.8
20260510130412 17 177 0.0 0.0 0.00 0.46 0.46 99 1012.7
20260510125909 18 141 0.0 1.6 0.00 0.46 0.46 99 1013.1
20260510125404 17 135 0.0 1.6 0.00 0.46 0.46 99 1013.1
20260510124902 17 183 1.6 1.6 0.00 0.46 0.46 99 1012.9
20260510124358 17 303 0.0 0.0 0.00 0.46 0.46 99 1012.8
20260510123854 17 128 0.0 0.0 0.00 0.46 0.46 99 1012.6
20260510123350 17 297 0.0 0.0 0.00 0.46 0.46 99 1012.7
20260510122846 17 26 3.2 4.8 0.00 0.46 0.46 99 1012.7
20260510122342 17 331 0.0 0.0 0.00 0.46 0.46 99 1012.4
20260510121839 17 160 1.6 1.6 0.00 0.46 0.46 99 1012.5
20260510121336 17 93 0.0 0.0 0.00 0.46 0.46 99 1012.5
20260510120833 17 78 0.0 0.0 0.00 0.46 0.46 99 1012.4
20260510120331 17 296 0.0 0.0 0.00 0.46 0.46 99 1012.2
20260510115826 17 75 0.0 0.0 0.00 0.46 0.46 99 1012.4
20260510115323 17 309 0.0 0.0 0.00 0.46 0.46 99 1012.3
20260510114819 17 298 0.0 0.0 0.00 0.46 0.46 99 1012.3
20260510114317 17 120 1.6 1.6 0.00 0.46 0.46 99 1012.5
20260510113811 17 343 0.0 1.6 0.00 0.46 0.46 99 1012.2
20260510113308 17 21 0.0 0.0 0.00 0.46 0.46 99 1012.0
20260510112805 17 302 0.0 0.0 0.00 0.46 0.46 99 1012.0
20260510112305 17 306 0.0 0.0 0.00 0.46 0.46 99 1012.0
20260510111758 17 54 0.0 0.0 0.00 0.46 0.46 99 1012.2
20260510111255 17 301 0.0 0.0 0.00 0.46 0.46 98 1012.1
20260510110754 17 279 0.0 0.0 0.00 0.46 0.46 99 1012.0
20260510110252 17 85 0.0 1.6 0.00 0.46 0.46 98 1011.9
20260510105752 17 329 0.0 0.0 0.00 0.46 0.46 98 1011.8
20260510105247 17 333 0.0 0.0 0.00 0.46 0.46 98 1011.6
20260510104744 17 9 0.0 0.0 0.00 0.46 0.46 98 1011.9
20260510104242 17 83 0.0 0.0 0.00 0.46 0.46 98 1012.0
20260510103737 17 105 0.0 0.0 0.00 0.46 0.46 98 1011.6
20260510103235 17 128 0.0 0.0 0.00 0.46 0.46 98 1011.9
20260510102734 17 291 0.0 0.0 0.00 0.46 0.46 98 1011.6
20260510102230 17 133 1.6 3.2 0.00 0.46 0.46 98 1011.4
20260510101728 17 112 0.0 1.6 0.00 0.46 0.46 97 1011.2
20260510101226 17 311 3.2 4.8 0.00 0.46 0.46 97 1011.5
20260510100722 17 14 3.2 4.8 0.00 0.46 0.46 97 1011.8
20260510100220 17 94 3.2 3.2 0.00 0.46 0.46 97 1012.1
20260510095715 17 45 0.0 0.0 0.00 0.46 0.46 97 1011.8
20260510095211 17 82 1.6 1.6 0.00 0.46 0.46 97 1011.6
20260510094709 17 118 0.0 3.2 0.00 0.46 0.46 97 1011.9
20260510094206 17 51 1.6 4.8 0.18 0.46 0.46 96 1012.2
20260510093701 17 147 3.2 4.8 0.30 0.46 0.46 96 1011.8
20260510093159 17 59 4.8 4.8 0.66 0.46 0.46 95 1011.2
20260510092655 17 48 3.2 3.2 1.68 0.41 0.41 95 1011.3
20260510092151 18 268 3.2 3.2 2.11 0.36 0.36 93 1011.2
20260510091647 18 130 11.3 14.5 0.89 0.15 0.15 90 1012.2
20260510091143 20 94 11.3 12.9 0.00 0.00 0.00 83 1012.6
20260510090640 20 57 4.8 11.3 0.00 0.00 0.00 81 1012.4
20260510090136 21 61 8.0 11.3 0.00 0.00 0.00 79 1011.6
20260510085631 21 52 11.3 16.1 0.00 0.00 0.00 79 1011.8
20260510085127 21 52 6.4 9.7 0.00 0.00 0.00 82 1011.5
20260510084624 22 12 4.8 12.9 0.00 0.00 0.00 90 1011.1
20260510084121 22 31 1.6 1.6 0.00 0.00 0.00 91 1010.9
20260510083617 23 312 4.8 8.0 0.00 0.00 0.00 93 1010.6
20260510083113 23 304 1.6 3.2 0.00 0.00 0.00 93 1010.3
20260510082610 23 8 4.8 4.8 0.00 0.00 0.00 93 1010.2
20260510082106 23 98 1.6 1.6 0.00 0.00 0.00 93 1010.0
20260510081600 23 297 0.0 0.0 0.00 0.00 0.00 93 1010.3
20260510081056 23 110 3.2 3.2 0.00 0.00 0.00 93 1010.5
20260510080556 23 27 4.8 4.8 0.00 0.00 0.00 93 1010.5
20260510080053 23 6 6.4 8.0 0.00 0.00 0.00 93 1010.7
20260510075550 23 53 4.8 4.8 0.00 0.00 0.00 93 1010.3
20260510075047 23 45 0.0 0.0 0.00 0.00 0.00 92 1009.7
20260510074544 23 355 1.6 3.2 0.00 0.00 0.00 92 1009.5
20260510074039 23 340 0.0 0.0 0.00 0.00 0.00 92 1009.2
20260510073536 23 333 0.0 0.0 0.00 0.00 0.00 91 1009.3
20260510073033 23 336 0.0 0.0 0.00 0.00 0.00 91 1009.2
20260510072530 23 351 0.0 0.0 0.00 0.00 0.00 90 1009.0
20260510072025 23 317 0.0 0.0 0.00 0.00 0.00 90 1008.8
20260510071521 23 329 0.0 0.0 0.00 0.00 0.00 90 1008.5
20260510071020 23 82 1.6 1.6 0.00 0.00 0.00 89 1008.6
20260510070516 23 95 0.0 1.6 0.00 0.00 0.00 89 1008.3
20260510070013 23 181 1.6 1.6 0.00 0.00 0.00 89 1008.2
20260510065510 23 192 1.6 1.6 0.00 0.00 0.00 88 1008.2
20260510065006 23 109 3.2 4.8 0.00 0.00 0.00 88 1008.5
20260510064503 23 134 1.6 1.6 0.00 0.00 0.00 88 1009.1
20260510063959 23 89 3.2 8.0 0.00 0.00 0.00 88 1009.9
20260510063456 23 23 3.2 4.8 0.00 0.00 0.00 88 1010.4
20260510062954 23 16 3.2 4.8 0.00 0.00 0.00 87 1010.4
20260510062449 23 118 6.4 12.9 0.00 0.00 0.00 87 1010.9
20260510061944 23 315 4.8 4.8 0.00 0.00 0.00 87 1010.9
20260510061441 24 160 1.6 1.6 0.00 0.00 0.00 87 1010.6
20260510060937 23 38 4.8 8.0 0.00 0.00 0.00 87 1010.5
20260510060434 23 24 8.0 11.3 0.00 0.00 0.00 87 1010.5
20260510055931 23 332 4.8 4.8 0.00 0.00 0.00 87 1010.1
20260510055426 23 351 3.2 3.2 0.00 0.00 0.00 88 1009.4
20260510054925 23 334 0.0 0.0 0.00 0.00 0.00 87 1008.8
20260510054420 23 330 0.0 0.0 0.00 0.00 0.00 87 1008.1
20260510053915 23 63 0.0 1.6 0.00 0.00 0.00 86 1008.2
20260510053411 23 126 0.0 1.6 0.00 0.00 0.00 85 1008.0
20260510052907 23 58 1.6 3.2 0.00 0.00 0.00 84 1008.1
20260510052403 23 10 6.4 8.0 0.00 0.00 0.00 84 1007.7
20260510051900 23 349 0.0 0.0 0.00 0.00 0.00 83 1007.9
20260510051356 24 331 0.0 0.0 0.00 0.00 0.00 82 1007.7
20260510050853 24 247 0.0 1.6 0.00 0.00 0.00 82 1007.4
20260510050350 24 117 1.6 3.2 0.00 0.00 0.00 81 1007.5
20260510045846 24 357 0.0 1.6 0.00 0.00 0.00 80 1007.6
20260510045343 24 165 3.2 3.2 0.00 0.00 0.00 79 1007.7
20260510044840 24 273 0.0 0.0 0.00 0.00 0.00 78 1008.0
20260510044337 24 8 0.0 0.0 0.00 0.00 0.00 77 1007.5
20260510043834 23 117 3.2 3.2 0.00 0.00 0.00 77 1007.2
20260510043330 23 155 0.0 0.0 0.00 0.00 0.00 77 1007.2
20260510042828 23 75 0.0 1.6 0.00 0.00 0.00 77 1007.2
20260510042323 23 91 0.0 1.6 0.00 0.00 0.00 77 1007.1
20260510041820 24 330 0.0 0.0 0.00 0.00 0.00 77 1007.3
20260510041317 23 340 0.0 0.0 0.00 0.00 0.00 77 1007.4
20260510040814 24 89 0.0 0.0 0.00 0.00 0.00 77 1007.1
20260510040311 24 41 0.0 1.6 0.00 0.00 0.00 76 1007.1
20260510035806 24 79 0.0 0.0 0.00 0.00 0.00 76 1007.3
20260510035306 24 69 3.2 3.2 0.00 0.00 0.00 75 1007.3
20260510034758 24 101 0.0 1.6 0.00 0.00 0.00 75 1007.5
20260510034256 24 121 1.6 1.6 0.00 0.00 0.00 75 1007.5
20260510033752 25 358 0.0 1.6 0.00 0.00 0.00 75 1007.8
20260510033250 25 29 0.0 0.0 0.00 0.00 0.00 75 1007.5
20260510032746 25 316 0.0 0.0 0.00 0.00 0.00 75 1007.6
20260510032242 25 30 3.2 3.2 0.00 0.00 0.00 74 1007.9
20260510031738 25 319 0.0 0.0 0.00 0.00 0.00 74 1007.4
20260510031233 25 310 0.0 0.0 0.00 0.00 0.00 73 1007.7
20260510030733 25 107 1.6 1.6 0.00 0.00 0.00 73 1007.4
20260510030231 25 82 1.6 3.2 0.00 0.00 0.00 73 1007.7
20260510025728 25 28 1.6 1.6 0.00 0.00 0.00 72 1007.5
20260510025226 25 103 3.2 4.8 0.00 0.00 0.00 72 1007.3
20260510024722 25 100 0.0 1.6 0.00 0.00 0.00 72 1007.6
20260510024219 25 334 0.0 0.0 0.00 0.00 0.00 72 1007.5
20260510023714 25 334 0.0 0.0 0.00 0.00 0.00 72 1007.6
20260510023212 25 49 0.0 0.0 0.00 0.00 0.00 72 1007.5
20260510022708 25 334 0.0 0.0 0.00 0.00 0.00 72 1007.3
20260510022202 25 74 0.0 0.0 0.00 0.00 0.00 71 1007.2
20260510021658 25 106 1.6 1.6 0.00 0.00 0.00 71 1007.6
20260510021156 25 113 0.0 1.6 0.00 0.00 0.00 70 1007.5
20260510020656 26 349 0.0 0.0 0.00 0.00 0.00 69 1007.3
20260510020151 26 78 0.0 0.0 0.00 0.00 0.00 69 1007.2
20260510015647 26 117 1.6 3.2 0.00 0.00 0.00 68 1007.2
20260510015144 26 66 1.6 1.6 0.00 0.00 0.00 67 1007.3
20260510014644 26 75 1.6 1.6 0.00 0.00 0.00 67 1007.3
20260510014142 26 78 0.0 1.6 0.00 0.00 0.00 66 1007.3
20260510013637 26 119 3.2 4.8 0.00 0.00 0.00 66 1007.4
20260510013132 26 109 1.6 3.2 0.00 0.00 0.00 65 1007.0
20260510012633 26 87 1.6 3.2 0.00 0.00 0.00 65 1006.8
20260510012129 26 101 1.6 3.2 0.00 0.00 0.00 65 1007.1
20260510011629 27 144 1.6 3.2 0.00 0.00 0.00 65 1006.6
20260510011125 27 337 0.0 0.0 0.00 0.00 0.00 64 1006.5
20260510010621 27 325 0.0 0.0 0.00 0.00 0.00 63 1006.6
20260510010118 27 80 3.2 3.2 0.00 0.00 0.00 62 1006.6
20260510005614 27 190 1.6 1.6 0.00 0.00 0.00 60 1006.3
20260510005111 28 13 0.0 1.6 0.00 0.00 0.00 59 1006.4
20260510004609 28 332 0.0 0.0 0.00 0.00 0.00 58 1006.3
20260510004107 28 216 0.0 0.0 0.00 0.00 0.00 57 1006.3
20260510003604 28 315 0.0 0.0 0.00 0.00 0.00 57 1006.4
20260510003059 28 108 1.6 1.6 0.00 0.00 0.00 57 1006.2
20260510002554 28 9 1.6 1.6 0.00 0.00 0.00 56 1006.2
20260510002051 29 31 1.6 3.2 0.00 0.00 0.00 55 1006.3
20260510001549 29 314 1.6 1.6 0.00 0.00 0.00 53 1006.4
20260510001048 29 326 1.6 3.2 0.00 0.00 0.00 56 1006.4
20260510000542 29 125 1.6 3.2 0.00 0.00 0.00 57 1006.6
20260510000039 29 80 1.6 1.6 0.00 0.00 0.00 57 1006.5
20260509235536 30 333 4.8 4.8 0.00 0.00 0.00 56 1006.5
20260509235033 30 308 0.0 0.0 0.00 0.00 0.00 57 1006.5
20260509234529 30 107 3.2 3.2 0.00 0.00 0.00 56 1006.6
20260509234027 30 52 1.6 4.8 0.00 0.00 0.00 57 1006.6
20260509233524 30 82 1.6 3.2 0.00 0.00 0.00 57 1006.5
20260509233021 30 80 1.6 1.6 0.00 0.00 0.00 56 1006.7
20260509232518 30 30 0.0 0.0 0.00 0.00 0.00 57 1006.4
20260509232014 30 280 0.0 0.0 0.00 0.00 0.00 58 1006.7
20260509231511 30 212 1.6 1.6 0.00 0.00 0.00 58 1006.7
20260509231009 30 287 0.0 0.0 0.00 0.00 0.00 57 1006.7
20260509230505 30 139 1.6 3.2 0.00 0.00 0.00 58 1006.5
20260509230002 30 301 0.0 1.6 0.00 0.00 0.00 58 1006.4
20260509225458 30 352 0.0 1.6 0.00 0.00 0.00 59 1006.5
20260509224953 30 280 1.6 3.2 0.00 0.00 0.00 59 1006.7
20260509224449 30 8 1.6 1.6 0.00 0.00 0.00 60 1006.6
20260509223946 30 334 1.6 3.2 0.00 0.00 0.00 60 1006.4
20260509223443 30 49 1.6 1.6 0.00 0.00 0.00 60 1006.4
20260509222940 30 93 1.6 3.2 0.00 0.00 0.00 60 1006.5
20260509222435 30 82 1.6 1.6 0.00 0.00 0.00 61 1006.2
20260509221931 30 104 4.8 8.0 0.00 0.00 0.00 60 1006.4
20260509221429 30 6 1.6 3.2 0.00 0.00 0.00 60 1006.4
20260509220924 30 320 1.6 1.6 0.00 0.00 0.00 62 1006.3
20260509220420 30 152 3.2 3.2 0.00 0.00 0.00 62 1006.4
20260509215917 30 104 3.2 4.8 0.00 0.00 0.00 61 1006.3
20260509215412 30 342 1.6 1.6 0.00 0.00 0.00 61 1006.3
20260509214910 30 16 0.0 0.0 0.00 0.00 0.00 63 1006.4
20260509214407 30 268 0.0 0.0 0.00 0.00 0.00 62 1006.5
20260509213904 30 140 0.0 1.6 0.00 0.00 0.00 64 1006.6
20260509213359 30 180 1.6 3.2 0.00 0.00 0.00 63 1006.4
20260509212857 30 140 1.6 1.6 0.00 0.00 0.00 61 1006.6
20260509212354 30 198 3.2 9.7 0.00 0.00 0.00 63 1006.8
20260509211850 30 190 4.8 4.8 0.00 0.00 0.00 62 1006.7
20260509211346 30 292 1.6 1.6 0.00 0.00 0.00 62 1006.8
20260509210843 30 101 0.0 0.0 0.00 0.00 0.00 62 1006.7
20260509210341 30 217 1.6 1.6 0.00 0.00 0.00 63 1006.8
20260509205840 30 319 1.6 1.6 0.00 0.00 0.00 65 1007.1
20260509205335 30 111 1.6 3.2 0.00 0.00 0.00 65 1007.2
20260509204832 30 81 4.8 4.8 0.00 0.00 0.00 64 1007.2
20260509204328 30 196 1.6 1.6 0.00 0.00 0.00 64 1007.2
20260509203824 31 110 6.4 8.0 0.00 0.00 0.00 62 1007.2
20260509203321 31 121 4.8 8.0 0.00 0.00 0.00 57 1007.3
20260509202817 31 282 0.0 0.0 0.00 0.00 0.00 60 1007.2
20260509202314 31 283 0.0 0.0 0.00 0.00 0.00 57 1007.2
20260509201813 31 92 3.2 4.8 0.00 0.00 0.00 57 1007.5
20260509201310 31 11 1.6 3.2 0.00 0.00 0.00 56 1007.4
20260509200806 30 293 1.6 1.6 0.00 0.00 0.00 59 1007.3
20260509200302 31 316 0.0 0.0 0.00 0.00 0.00 59 1007.7
20260509195758 31 82 0.0 0.0 0.00 0.00 0.00 58 1007.5
20260509195254 30 295 1.6 1.6 0.00 0.00 0.00 55 1007.4
20260509194748 30 16 0.0 0.0 0.00 0.00 0.00 53 1007.6
20260509194244 30 338 3.2 4.8 0.00 0.00 0.00 57 1007.5
20260509193741 30 351 1.6 3.2 0.00 0.00 0.00 58 1007.9
20260509193241 30 55 4.8 8.0 0.00 0.00 0.00 57 1007.9
20260509192737 30 245 3.2 3.2 0.00 0.00 0.00 59 1007.7
20260509192232 30 305 1.6 1.6 0.00 0.00 0.00 60 1007.6
20260509191728 30 280 1.6 1.6 0.00 0.00 0.00 61 1008.1
20260509191225 30 328 1.6 3.2 0.00 0.00 0.00 61 1008.0
20260509190721 30 284 0.0 0.0 0.00 0.00 0.00 61 1007.9
20260509190218 30 25 4.8 4.8 0.00 0.00 0.00 63 1008.0
20260509185716 29 19 0.0 0.0 0.00 0.00 0.00 66 1008.1
20260509185212 28 78 4.8 4.8 0.00 0.00 0.00 63 1008.0
20260509184709 28 275 6.4 9.7 0.00 0.00 0.00 65 1008.0
20260509184207 28 250 3.2 3.2 0.00 0.00 0.00 69 1008.2
20260509183703 28 28 4.8 4.8 0.00 0.00 0.00 67 1008.3
20260509183158 28 42 1.6 3.2 0.00 0.00 0.00 68 1008.2
20260509182653 28 44 0.0 1.6 0.00 0.00 0.00 67 1008.5
20260509182151 28 208 3.2 3.2 0.00 0.00 0.00 67 1008.5
20260509181649 28 313 1.6 1.6 0.00 0.00 0.00 70 1008.2
20260509181147 28 277 8.0 9.7 0.00 0.00 0.00 69 1008.8
20260509180643 28 341 1.6 1.6 0.00 0.00 0.00 71 1008.3
20260509180139 27 57 1.6 8.0 0.00 0.00 0.00 71 1008.4
20260509175635 27 322 3.2 4.8 0.00 0.00 0.00 70 1008.5
20260509175132 27 332 1.6 3.2 0.00 0.00 0.00 72 1008.6
20260509174628 27 326 1.6 1.6 0.00 0.00 0.00 72 1008.5
20260509174123 27 57 1.6 3.2 0.00 0.00 0.00 73 1008.9
20260509173619 27 52 6.4 11.3 0.00 0.00 0.00 73 1008.9
20260509173115 27 271 3.2 4.8 0.00 0.00 0.00 73 1008.7
20260509172612 27 103 4.8 8.0 0.00 0.00 0.00 73 1009.1
20260509172108 26 85 0.0 0.0 0.00 0.00 0.00 76 1009.1
20260509171604 26 301 1.6 4.8 0.00 0.00 0.00 76 1009.0
20260509171100 26 51 3.2 4.8 0.00 0.00 0.00 77 1009.1
20260509170557 26 345 1.6 1.6 0.00 0.00 0.00 76 1009.2
20260509170053 26 324 0.0 0.0 0.00 0.00 0.00 76 1008.9
20260509165551 25 27 0.0 3.2 0.00 0.00 0.00 77 1009.1
20260509165047 25 337 3.2 4.8 0.00 0.00 0.00 78 1009.1
20260509164543 25 295 3.2 3.2 0.00 0.00 0.00 77 1008.8
20260509164044 25 17 1.6 1.6 0.00 0.00 0.00 77 1009.1
20260509163543 25 313 1.6 1.6 0.00 0.00 0.00 78 1008.9
20260509163037 25 356 3.2 3.2 0.00 0.00 0.00 79 1009.3
20260509162535 25 25 1.6 1.6 0.00 0.00 0.00 79 1009.2
20260509162031 25 328 6.4 9.7 0.00 0.00 0.00 79 1008.9
20260509161527 25 305 4.8 8.0 0.00 0.00 0.00 79 1009.3
20260509161022 25 350 1.6 1.6 0.00 0.00 0.00 80 1009.1
20260509160518 24 358 3.2 3.2 0.00 0.00 0.00 80 1009.2
20260509160014 23 314 4.8 8.0 0.00 0.00 0.00 82 1009.0
20260509155510 23 255 3.2 3.2 0.00 0.00 0.00 82 1009.0
20260509155006 23 317 1.6 4.8 0.00 0.00 0.00 83 1009.0
20260509154503 23 0 1.6 3.2 0.00 0.00 0.00 84 1009.2
20260509154000 23 18 4.8 9.7 0.00 0.00 0.00 85 1009.0
20260509153457 22 326 1.6 3.2 0.00 0.00 0.00 86 1009.1
20260509152954 22 337 0.0 0.0 0.00 0.00 0.00 86 1009.3
20260509152449 22 331 1.6 1.6 0.00 0.00 0.00 87 1008.9
20260509151947 22 316 1.6 3.2 0.00 0.00 0.00 87 1009.0
20260509151443 22 285 4.8 4.8 0.00 0.00 0.00 87 1009.2
20260509150941 22 285 1.6 1.6 0.00 0.00 0.00 88 1009.1
20260509150438 22 341 4.8 4.8 0.00 0.00 0.00 88 1008.9
20260509145937 22 286 3.2 4.8 0.00 0.00 0.00 89 1009.1
20260509145437 21 293 1.6 3.2 0.00 0.00 0.00 89 1009.1
20260509144932 21 298 4.8 9.7 0.00 0.00 0.00 89 1009.0
20260509144430 21 270 4.8 4.8 0.00 0.00 0.00 90 1009.3
20260509143927 21 317 3.2 3.2 0.00 0.00 0.00 90 1009.1
20260509143424 21 328 3.2 8.0 0.00 0.00 0.00 90 1009.3
20260509142920 21 281 1.6 3.2 0.00 0.00 0.00 90 1009.1
20260509142417 21 313 6.4 9.7 0.00 0.00 0.00 90 1008.9
20260509141912 21 280 3.2 4.8 0.00 0.00 0.00 90 1008.8
20260509141410 21 15 4.8 8.0 0.00 0.00 0.00 89 1008.8
20260509140906 22 337 3.2 3.2 0.00 0.00 0.00 89 1008.9
20260509140403 22 318 1.6 1.6 0.00 0.00 0.00 90 1008.9
20260509135901 21 333 1.6 3.2 0.00 0.00 0.00 91 1008.8
20260509135358 21 294 6.4 8.0 0.00 0.00 0.00 92 1008.9
20260509134855 21 320 4.8 8.0 0.00 0.00 0.00 92 1008.7
20260509134353 21 246 3.2 4.8 0.00 0.00 0.00 93 1008.7
20260509133849 21 346 4.8 8.0 0.00 0.00 0.00 93 1009.0
20260509133346 21 358 1.6 3.2 0.00 0.00 0.00 94 1008.7
20260509132845 21 274 3.2 3.2 0.00 0.00 0.00 94 1008.7
20260509132343 21 296 4.8 4.8 0.00 0.00 0.00 94 1008.6
20260509131839 21 333 1.6 1.6 0.00 0.00 0.00 95 1008.5